Location: Caserta
(41.0670°N, 14.3330°E)
Time: 04:25:11
(UTC+02:00)

STARLINK-1341 - Pass Details

Date: 06 October 2020
Orbit: 549 x 550 km, 53.0° (Epoch: 20 October)

Event Time Altitude Azimuth Distance (km) Brightness Sun altitude
Exits shadow 04:02:21 13° 31° (NNE) 1,640 6.6 -34.3°
Drops below altitude 10° 04:02:55 10° 36° (NE) 1,825 6.9 -34.2°
Sets 04:05:25 0° 49° (NE) 2,721 8.1 -33.8°
